TimeCDT,TemperatureF,Dew PointF,Humidity,Sea Level PressureIn,VisibilityMPH,Wind Direction,Wind SpeedMPH,Gust SpeedMPH,PrecipitationIn,Events,Conditions,WindDirDegrees,DateUTC
12:53 AM,50.0,21.9,33,30.11,10.0,SSW,3.5,-,N/A,,Clear,210,2013-04-05 05:53:00
1:53 AM,46.9,26.1,44,30.12,10.0,WSW,5.8,-,N/A,,Clear,240,2013-04-05 06:53:00
2:53 AM,46.0,27.0,47,30.11,10.0,SW,5.8,-,N/A,,Clear,230,2013-04-05 07:53:00
3:53 AM,46.0,28.0,50,30.12,10.0,WSW,5.8,-,N/A,,Clear,250,2013-04-05 08:53:00
4:53 AM,46.0,28.9,51,30.13,10.0,NE,3.5,-,N/A,,Clear,50,2013-04-05 09:53:00
5:53 AM,44.1,28.9,55,30.13,10.0,NE,4.6,-,N/A,,Clear,50,2013-04-05 10:53:00
6:53 AM,44.1,30.0,58,30.14,10.0,East,3.5,-,N/A,,Clear,100,2013-04-05 11:53:00
7:53 AM,41.0,33.1,73,30.17,10.0,NE,5.8,-,N/A,,Clear,40,2013-04-05 12:53:00
8:53 AM,48.0,35.1,61,30.18,10.0,East,5.8,-,N/A,,Clear,80,2013-04-05 13:53:00
9:53 AM,51.1,35.1,54,30.18,10.0,East,8.1,-,N/A,,Clear,90,2013-04-05 14:53:00
11:53 AM,57.9,37.0,46,30.15,10.0,ESE,6.9,-,N/A,,Clear,110,2013-04-05 16:53:00
12:53 PM,63.0,37.9,40,30.13,10.0,South,8.1,-,N/A,,Clear,170,2013-04-05 17:53:00
1:53 PM,64.9,37.9,37,30.09,10.0,South,15.0,18.4,N/A,,Clear,180,2013-04-05 18:53:00
2:53 PM,66.9,39.0,36,30.05,10.0,SSW,8.1,-,N/A,,Clear,200,2013-04-05 19:53:00
3:53 PM,68.0,39.9,36,30.02,10.0,SSW,10.4,-,N/A,,Clear,200,2013-04-05 20:53:00
4:53 PM,68.0,39.0,35,29.99,10.0,South,13.8,21.9,N/A,,Clear,190,2013-04-05 21:53:00
5:53 PM,66.9,39.9,37,29.97,10.0,South,11.5,-,N/A,,Clear,190,2013-04-05 22:53:00
6:53 PM,64.9,37.9,37,29.96,10.0,South,11.5,21.9,N/A,,Clear,180,2013-04-05 23:53:00
7:53 PM,63.0,39.0,41,29.94,10.0,South,13.8,18.4,N/A,,Clear,170,2013-04-06 00:53:00
8:53 PM,61.0,37.9,42,29.93,10.0,South,9.2,17.3,N/A,,Clear,190,2013-04-06 01:53:00
9:53 PM,60.1,39.0,46,29.93,10.0,South,10.4,-,N/A,,Clear,190,2013-04-06 02:53:00
10:53 PM,59.0,39.0,48,29.91,10.0,South,11.5,-,N/A,,Clear,180,2013-04-06 03:53:00
11:53 PM,59.0,39.9,49,29.88,10.0,South,13.8,-,N/A,,Clear,190,2013-04-06 04:53:00